CZ-6A DEB, 57576

Orbit data source: Space-Track

CZ-6A DEB, 57576 is space debris in SSO originally from a launch on Fri, 11 Nov 2022 UTC launched from the Taiyaun Space Center, China (TSC). Debris objects in space refer to the collection of defunct objects orbiting the Earth. Examples of debris include non-operational satellites, rocket bodies, and fragments generated from explosions, collisions, or faulty payload assembly.

Loading next visibility...
Identifier
57576, 2022-151AHT
Orbit
SSO
Country
Flag of CNCN / PRC
Related business
Manufacturer
SAST
Mission
Spacecraft
Bus & Motor
Unknown
Mass
Unknown
Launch date (UTC)
2022-11-11 (4 years ago)
Launch vehicle
Unknown
Launch site
Taiyaun Space Center, China (TSC)
Object type
Payload
Rocket body
Debris
Shape & HBR
Unknown shape, 0.1 m
Radar Cross Section
Small (<0.1 m²)

Expand to show TLE details & history
Last TLE update: 2 days ago

TLE from 2 days ago
0 CZ-6A DEB
1 57576U 22151AHT 26170.96861973  .00001401  00000-0  69875-3 0  9990
2 57576  98.8202 178.6698 0037444 305.1297  54.6371 14.18162417163882
Epoch: 2026-06-19T23:14Z
TLE epoch observation values (Epoch: 2026-06-19T23:14:48.744Z)
Latitude
-0.00003°
Longitude
-78.22328°
Altitude
818.923 km
Speed
7.452 km/s
True Right ascension
11h 54m 40s
True Declination
0° 00' 00"
Sunlit
Object was in daylight at epoch
Visualization orbit readout
Latitude
Unknown
Longitude
Unknown
Altitude
Unknown
Speed
Unknown
Apparent Right ascension
Unknown
Apparent Declination
Unknown
Sunlit
N/A
Visualization observer readout
Local Sidereal Time
21:25:49
Azimuth
Unknown
Elevation
Unknown
Doppler factor
Unknown
Orbital elements
Apogee altitude
855.726 km
Perigee altitude
801.755 km
Semi-major axis
7,206.877 km
Eccentricity
0.00374
Inclination
98.8202°
RAAN
178.6698°
Arg. of periapsis
305.1297°
True anomaly
54.98796°
Mean anomaly
54.6371°
Eccentric anomaly
54.81244°
Mean motion
3.5475 °/min
Orbital period
101.48 mins
BSTAR
0.00069875
Loading maneuver chart data...
Computing Atmospheric mass density...
Loading historical data...
Loading historical data...
Loading historical data...
Loading historical data...
Loading historical data...
Loading historical data...
Loading historical data...

Documentation

Showing up to 5 results
|